EW4496 Weather Reports


Display with metric or nautical units.
time (UTC)temp
F
wind
direction
speed
MPH
gust
MPH
rain 1hr
in
rain 24hr
in
rain mn
in
humidity
%
barometer
mb
20260505180041 60 165 0.0 0.0 0.00 0.43 0.02 78 1014.8
20260505174545 60 323 0.0 0.0 0.00 0.43 0.02 80 1014.7
20260505173046 59 252 0.0 0.0 0.00 0.43 0.02 83 1014.6
20260505171555 58 288 0.0 0.0 0.00 0.43 0.02 85 1014.7
20260505170054 57 278 0.0 1.0 0.00 0.43 0.02 86 1014.7
20260505164616 57 244 0.0 1.0 0.00 0.43 0.02 88 1014.6
20260505163055 56 321 0.0 0.0 0.00 0.43 0.02 90 1014.6
20260505161558 55 290 0.0 0.0 0.00 0.43 0.02 91 1014.6
20260505160107 55 213 0.0 1.0 0.00 0.43 0.02 91 1014.5
20260505153109 54 236 0.0 1.0 0.00 0.43 0.02 93 1014.5
20260505151511 54 207 0.0 2.0 0.00 0.43 0.02 93 1014.3
20260505124543 52 216 0.0 0.0 0.00 0.43 0.02 95 1013.5
20260505123039 52 218 0.0 0.0 0.00 0.43 0.02 95 1013.4
20260505121558 52 179 0.0 0.0 0.00 0.43 0.02 95 1013.4
20260505120113 52 245 0.0 0.0 0.00 0.43 0.02 95 1013.6
20260505114558 52 219 0.0 1.0 0.00 0.43 0.02 95 1013.6
20260505113058 52 236 0.0 0.0 0.00 0.43 0.02 95 1013.6
20260505111558 52 224 0.0 1.0 0.00 0.43 0.02 95 1013.6
20260505110108 52 236 0.0 1.0 0.00 0.43 0.02 95 1013.6
20260505101600 52 266 0.0 1.0 0.01 0.43 0.02 95 1013.6
20260505100058 52 229 0.0 1.0 0.01 0.43 0.02 95 1013.6
20260505094557 52 196 0.0 0.0 0.00 0.42 0.01 95 1013.9
20260505093100 53 232 0.0 0.0 0.00 0.42 0.01 95 1013.9
20260505091609 53 294 0.0 0.0 0.00 0.42 0.01 95 1014.1
20260505090058 53 302 0.0 0.0 0.00 0.42 0.01 95 1014.1
20260505084558 53 242 0.0 1.0 0.00 0.42 0.01 95 1014.3
20260505083058 53 249 0.0 0.0 0.01 0.42 0.01 95 1014.4
20260505081558 53 285 0.0 0.0 0.01 0.42 0.01 95 1014.4
20260505080106 53 250 0.0 0.0 0.01 0.42 0.01 95 1014.3
20260505074534 53 290 0.0 0.0 0.02 0.42 0.01 94 1014.3
20260505073046 53 229 0.0 0.0 0.03 0.41 0.00 94 1014.6
20260505071542 53 175 0.0 0.0 0.04 0.41 0.00 94 1014.5
20260505070051 53 175 0.0 0.0 0.07 0.41 0.41 94 1014.6
20260505064542 53 175 0.0 0.0 0.08 0.40 0.40 94 1014.2
20260505063052 53 175 0.0 0.0 0.08 0.38 0.38 94 1014.5
20260505061544 53 175 0.0 0.0 0.07 0.36 0.36 94 1014.5
20260505060042 53 175 0.0 0.0 0.05 0.34 0.34 93 1014.1
20260505054542 53 175 0.0 0.0 0.03 0.32 0.32 93 1014.3
20260505053052 54 210 0.0 0.0 0.03 0.30 0.30 92 1014.4
20260505051542 53 193 0.0 0.0 0.04 0.28 0.28 93 1014.2
20260505041552 54 187 0.0 0.0 0.08 0.25 0.25 92 1014.6
20260505040050 54 188 0.0 0.0 0.09 0.23 0.23 91 1014.5
20260505034541 54 188 0.0 0.0 0.09 0.22 0.22 91 1014.5
20260505033041 54 188 0.0 0.0 0.07 0.20 0.20 91 1014.3
20260505031537 54 188 0.0 0.0 0.03 0.16 0.16 89 1014.4
20260505030011 55 188 0.0 0.0 0.01 0.14 0.14 88 1014.4
20260505024511 55 162 0.0 3.0 0.01 0.13 0.13 87 1013.8
20260505023011 55 166 0.0 5.0 0.01 0.13 0.13 88 1013.5
20260505021511 55 148 0.0 0.0 0.01 0.13 0.13 91 1013.7
20260505020111 55 220 0.0 0.0 0.02 0.13 0.13 90 1013.8
20260505014608 55 173 0.0 0.0 0.02 0.12 0.12 91 1013.6
20260505013056 55 120 0.0 1.0 0.03 0.12 0.12 90 1013.7
20260505011606 55 146 0.0 0.0 0.05 0.12 0.12 90 1013.5
20260505010055 55 146 0.0 1.0 0.05 0.11 0.11 89 1013.9
20260505004612 56 119 0.0 1.0 0.05 0.10 0.10 91 1014.1
20260505003110 56 139 0.0 0.0 0.04 0.09 0.09 90 1014.2
20260505001609 57 170 0.0 0.0 0.03 0.07 0.07 89 1014.2
20260505000118 57 133 0.0 1.0 0.04 0.06 0.06 87 1014.3
20260504234510 57 176 0.0 0.0 0.03 0.05 0.05 87 1014.1
20260504233010 57 166 0.0 0.0 0.03 0.05 0.05 86 1014.1
20260504231510 57 169 0.0 0.0 0.02 0.03 0.03 86 1014.2
20260504230012 57 169 0.0 0.0 0.02 0.02 0.02 84 1014.3
20260504224524 57 179 0.0 0.0 0.02 0.02 0.02 84 1014.3
20260504223034 58 189 0.0 2.0 0.02 0.02 0.02 84 1014.5
20260504221527 58 172 0.0 1.0 0.01 0.01 0.01 84 1014.5
20260504220025 58 160 0.0 1.0 0.00 0.00 0.00 83 1014.6
20260504214526 58 174 0.0 0.0 0.00 0.00 0.00 80 1014.6
20260504213052 59 159 0.0 0.0 0.00 0.00 0.00 81 1014.7
20260504211539 59 231 0.0 0.0 0.00 0.00 0.00 79 1014.8
20260504210041 60 323 0.0 0.0 0.00 0.00 0.00 76 1014.8
20260504204545 60 302 0.0 1.0 0.00 0.00 0.00 76 1014.5
20260504203157 60 209 0.0 0.0 0.00 0.00 0.00 75 1014.5
20260504201539 60 271 0.0 1.0 0.00 0.00 0.00 76 1014.6
20260504200039 59 278 0.0 2.0 0.00 0.00 0.00 76 1014.6
20260504194510 59 205 0.0 0.0 0.00 0.00 0.00 76 1014.8
20260504193053 59 309 0.0 0.0 0.00 0.00 0.00 78 1014.6
20260504191556 59 205 0.0 1.0 0.00 0.00 0.00 76 1014.8
20260504190049 59 246 0.0 0.0 0.00 0.00 0.00 74 1014.8
20260504184551 59 252 0.0 3.0 0.00 0.00 0.00 75 1014.9
20260504183049 59 236 0.0 5.0 0.00 0.00 0.00 74 1014.9
20260504181549 60 222 0.0 1.0 0.00 0.00 0.00 76 1015.0